Погода в Приколотном

Украина / Харьковская область     50°09′38″N   37°21′02″E
темп.,
°C
ветер,
м/с
пор.,
м/с
влажн.,
%
обл.,
%
осадки,
мм/ч
давл.,
гПа
погр.,
м
26 июня, вс
вс2600:00+17ссв369117 1.3 101599
03:00+16св41092100 1.3 1016204
06:00+17св5129087 0.0 1016319
09:00+21всв61175100 0.0 1017572
12:00+24всв7961100 0.3 10171266
15:00+26всв61061100 0.3 10172054
18:00+25св5967100 0.0 1017680
21:00+20св498454 0.1 1018164
27 июня, пн
пн2700:00+18всв513835 0.0 1019283
03:00+16св413907 0.0 1020276
06:00+16всв5128121 0.0 1021320
09:00+20всв69664 0.0 1021586
12:00+23всв68545 0.0 10211089
15:00+24всв68511 0.0 10201243
18:00+23всв46634 0.0 1019990
21:00+18в22790 0.0 102016
28 июня, вт
вт2800:00+17всв22810 0.0 102013
03:00+16с22831 0.0 101911
06:00+18с22792 0.0 101954
09:00+24с34720 0.0 1018388
12:00+28св455976 1.6 10171373
15:00+29св5652100 1.6 10161942
18:00+27всв486399 0.0 1016394
21:00+22св467813 0.0 101791
29 июня, ср
ср2900:00+19всв41085100 0.0 1018205
03:00+18всв410931 0.0 1019242
06:00+17в49836 0.0 1020262
09:00+21в56625 0.0 1020518
12:00+23в55511 0.0 10201029
15:00+24в55485 0.0 10191370
18:00+22всв4560100 0.0 1019428
21:00+17в467190 0.0 102086
30 июня, чт
чт3000:00+15вюв3569100 0.0 102075
03:00+16вюв3462100 0.0 102082
06:00+16вюв236699 0.0 102054
09:00+20в235799 0.0 1021526
12:00+23в23495 0.0 10201556
15:00+23с345799 0.0 10191349
18:00+22ссв2365100 0.0 1019156
21:00+20св38671 0.0 1019194